Regional Weather Roundup
Issued by NWS

Home | Current Version | Previous Version | Text Only | Print | Product List | Glossary On
Versions: 1 2 3 4 5 6 7 8 9 10 11 12 13 14 15 16 17 18 19 20 21 22 23 24 25 26 27 28 29 30 31 32 33 34 35 36 37 38 39 40 41 42 43 44 45 46 47 48 49 50
000
ASUS45 KREV 090010
RWRNV
NEVADA REGIONAL WEATHER ROUNDUP
NATIONAL WEATHER SERVICE RENO NV
400 PM PST THU DEC 08 2016

NOTE: "FAIR" INDICATES FEW OR NO CLOUDS BELOW 12,000 FEET WITH NO
SIGNIFICANT WEATHER AND/OR OBSTRUCTIONS TO VISIBILITY.

NVZ001-003-004-090100-
WESTERN NEVADA

CITY           SKY/WX    TMP DP  RH WIND       PRES   REMARKS
RENO           MOCLDY    54  36  50 S13G21    30.02R
6HR MIN TEMP:  32; 6HR MAX TEMP:  57;

CARSON CITY    CLOUDY    54  34  47 S7G16     30.07R
MINDEN         FAIR      52  32  46 S17G33    30.07S
PYRAMID LAKE     N/A     39 N/A N/A N1          N/A
FALLON         MOCLDY    39  30  70 NE7       30.05S
6HR MIN TEMP:  30; 6HR MAX TEMP:  43;

LOVELOCK       MOCLDY    35  26  69 CALM      30.06S
6HR MIN TEMP:  28; 6HR MAX TEMP:  36;

HAWTHORNE        N/A    N/A N/A N/A MISG        N/A
$$

NVZ002-CAZ072-073-090100-
NORTHERN AND CENTRAL SIERRA

CITY           SKY/WX    TMP DP  RH WIND       PRES   REMARKS
S. LAKE TAHOE  MOCLDY    44  34  67 S14G26    30.09R
6HR MIN TEMP:  44; 6HR MAX TEMP:  46; 6HR PCP: TRACE;

TRUCKEE        CLOUDY    43  34  70 E10       30.10S
                   6HR MAX TEMP:  46;

SQUAW VLY 8000   N/A     34  34 100 SW17        N/A
SUSANVILLE     CLOUDY    39  37  93 NE6       30.04R
MAMMOTH LAKES  FAIR      46  27  47 W9G45     30.17F
6HR MIN TEMP:  32; 6HR MAX TEMP:  51;

BRIDGEPORT       N/A     45  26  47 SW14G24   30.10R
$$

NVZ030-031-036-090100-
NORTHERN NEVADA

CITY           SKY/WX    TMP DP  RH WIND       PRES   REMARKS
ELKO           MIX PCPN  29  24  82 CALM      30.08R
6HR MIN TEMP:  22; 6HR MAX TEMP:  29; 6HR PCP:  0.06;

WINNEMUCCA     CLOUDY    29  25  85 NE7       30.06R
6HR MIN TEMP:  26; 6HR MAX TEMP:  30;

WENDOVER       PTCLDY    23  16  74 N3        30.17S
$$

NVZ035-037-090100-
CENTRAL NEVADA

CITY           SKY/WX    TMP DP  RH WIND       PRES   REMARKS
ELY            CLOUDY    37  15  40 E3        30.14R
6HR MIN TEMP:  31; 6HR MAX TEMP:  40;

EUREKA           N/A     36  23  59 S8        30.10S
6HR MIN TEMP:  27; 6HR MAX TEMP:  39;

$$

NVZ013-014-090100-
SOUTH CENTRAL NEVADA

CITY           SKY/WX    TMP DP  RH WIND       PRES   REMARKS
TONOPAH        MOCLDY    43  11  27 S6        30.17R
6HR MIN TEMP:  36; 6HR MAX TEMP:  44;

$$

NVZ017-020-022-090100-
SOUTHERN NEVADA

CITY           SKY/WX    TMP DP  RH WIND       PRES   REMARKS
LAS VEGAS      MOCLDY    52   6  15 CALM      30.21S
6HR MIN TEMP:  47; 6HR MAX TEMP:  54;

N. LAS VEGAS   PTCLDY    51   7  16 CALM      30.21S
6HR MIN TEMP:  46; 6HR MAX TEMP:  53;

NELLIS AFB     PTCLDY    53   9  17 CALM      30.21S
6HR MIN TEMP:  44; 6HR MAX TEMP:  54;

HENDERSON      CLEAR     49   9  19 NE5       30.22S
6HR MIN TEMP:  47; 6HR MAX TEMP:  52;

MERCURY        CLEAR     48   8  19 SE7       30.19R
6HR MIN TEMP:  44; 6HR MAX TEMP:  51;

$$



USA.gov is the U.S. government's official web portal to all federal, state and local government web resources and services.